This demonstration page uses our WeatherBlox Daily Observations layout. Learn more.

Left ArrowRight Arrow

Hourly Observations for April 25, 2020

Temp ( °F °C ) Dew Point ( °F °C ) Humidity (%) Winds ( mph kmh ) Pressure ( in mb ) Visibility ( mi km ) Precip ( " mm )
12:52 am 00:52 Cloudy 51 10.6 46 7.8 83 83 N 8 13 29.95 1014 10 16 0.00 0.00
1:52 am 01:52 Mostly Cloudy 50 10 45 7.2 83 83 N 9 15 29.96 1014 10 16 0.00 0.00
2:52 am 02:52 Mostly Cloudy 47 8.3 44 6.7 90 90 N 7 11 29.96 1014 10 16 0.00 0.00
3:52 am 03:52 Partly Cloudy 45 7.2 43 6.1 93 93 N 8 13 29.96 1015 10 16 0.00 0.00
4:52 am 04:52 Mostly Clear 45 7.2 43 6.1 93 93 N 10 17 29.97 1015 10 16 0.00 0.00
5:52 am 05:52 Mostly Clear 43 6.1 41 5 93 93 N 8 13 29.99 1016 8 13 0.00 0.00
6:52 am 06:52 Mostly Sunny 43 6.1 41 5 93 93 N 9 15 30.00 1016 7 11 0.00 0.00
7:52 am 07:52 Sunny 46 7.8 43 6.1 89 89 N 8 13 30.01 1016 7 11 0.00 0.00
8:52 am 08:52 Mostly Sunny 50 10 45 7.2 83 83 N 8 13 30.03 1017 10 16 0.00 0.00
9:52 am 09:52 Mostly Sunny 56 13.3 46 7.8 70 70 N 7 11 30.04 1017 10 16 0.00 0.00
10:52 am 10:52 Mostly Sunny 61 16.1 46 7.8 58 58 N 6 9 30.04 1017 10 16 0.00 0.00
11:52 am 11:52 Partly Cloudy 65 18.3 44 6.7 47 47 N 6 9 30.05 1018 10 16 0.00 0.00
12:52 pm 12:52 Mostly Cloudy 67 19.4 40 4.4 37 37 Calm 30.03 1017 10 16 0.00 0.00
1:28 pm 13:28 Cloudy with Thunderstorms 65 18.3 39 3.9 39 39 VRB 3 6 30.01 1016 10 16 0.00 0.00
1:52 pm 13:52 Mostly Cloudy with Thunderstorms 60 15.6 41 5 50 50 W 15 24 30.03 1017 10 16 0.00 0.00
2:52 pm 14:52 Mostly Cloudy 59 15 46 7.8 62 62 VRB 3 6 30.04 1017 10 16 0.01 0.25
3:52 pm 15:52 Mostly Cloudy 66 18.9 43 6.1 43 43 NNE 7 11 30.02 1017 10 16 0.00 0.00
4:52 pm 16:52 Mostly Cloudy 65 18.3 42 5.6 43 43 ESE 6 9 30.01 1016 10 16 0.00 0.00
5:27 pm 17:27 Cloudy with Thunderstorms 58 14.4 43 6.1 58 58 N 13 20 30.03 1017 7 11 0.00 0.00
5:37 pm 17:37 Cloudy with Thunderstorms 54 12.2 45 7.2 72 72 N 23 37 30.04 1017 5 8 0.00 0.00
5:49 pm 17:49 Cloudy with Thunderstorms 54 12 46 8 77 77 ENE 12 19 30.03 1017 4 6 0.02 0.51
5:52 pm 17:52 Mostly Cloudy with Thunderstorms 54 12.2 48 8.9 80 80 E 10 17 30.05 1018 5 8 0.03 0.76
6:38 pm 18:38 Mostly Cloudy 56 13.3 46 7.8 70 70 SSE 7 11 30.06 1018 10 16 0.00 0.00
6:52 pm 18:52 Mostly Cloudy 55 12.8 48 8.9 77 77 SE 13 20 30.06 1018 10 16 0.00 0.00
7:52 pm 19:52 Partly Cloudy 53 11.7 46 7.8 77 77 SSE 8 13 30.07 1018 10 16 0.00 0.00
8:52 pm 20:52 Partly Cloudy 52 11.1 46 7.8 80 80 S 6 9 30.07 1018 10 16 0.00 0.00
9:52 pm 21:52 Partly Cloudy 51 10.6 46 7.8 83 83 SSW 6 9 30.09 1019 10 16 0.00 0.00
10:52 pm 22:52 Mostly Clear 48 8.9 44 6.7 86 86 SE 5 7 30.09 1019 10 16 0.00 0.00
11:52 pm 23:52 Clear 48 8.9 45 7.2 89 89 SE 3 6 30.09 1019 10 16 0.00 0.00

Powered by AerisWeather